M I D A S
Marine Information and Data Acquisition System
Tripno 1520 of the Zeeleeuw from 2008-07-16 06:56:36 to 2008-07-16 11:30:06
Back to CruiseResearch ActivitiesStationsMapUnderway DataData graphs

EquipmentUnitsComment
TimeDGPSUTC
LatitudeDGPSDM.mWGS84
LongitudeDGPSDM.mWGS84
TemperatureSBE03/SBE38deg celciusITS90
ConductivitySBE21S/mITS90
SalinitySBE21 Practical Salinity Units
ChlorophylAChelsea fluorimeterg/lCalibrated in Aceton
Missing or incorrect values are displayed as -999
Sea surface data collected by the RV Zeeleeuw from 2008-07-16 06:49:13 to 2008-07-16 11:42:08
Time Latitude Longitude Temperature Conductivity Salinity ChlorophylA
2008-07-16 06:50:18 51°13.623 2°56.047 21.1035 0.072051 0.381027 -1.627401
2008-07-16 06:51:18 51°13.622 2°56.047 21.1065 0.072154 0.381563 -1.627401
2008-07-16 06:52:18 51°13.622 2°56.047 21.106 0.072154 0.381543 -1.627401
2008-07-16 06:53:18 51°13.623 2°56.048 21.1154 0.072154 0.381524 -1.627401
2008-07-16 06:54:18 51°13.623 2°56.048 21.1155 0.072154 0.381505 -1.627401
2008-07-16 06:55:18 51°13.623 2°56.047 21.1172 0.072154 0.381485 -1.627401
2008-07-16 06:56:18 51°13.622 2°56.046 21.0641 0.072154 0.381466 -1.627401
2008-07-16 06:57:18 51°13.638 2°55.985 21.1078 0.072154 0.38144 -1.627401
2008-07-16 06:58:18 51°13.67 2°55.881 21.1253 0.072154 0.381414 -1.627401
2008-07-16 06:59:18 51°13.709 2°55.795 21.1419 0.072154 0.381414 -1.627401
2008-07-16 07:00:18 51°13.738 2°55.75 21.1052 0.072154 0.381389 -1.662225
2008-07-16 07:01:18 51°13.793 2°55.667 21.1352 0.072154 0.381389 -1.662225
2008-07-16 07:02:18 51°13.858 2°55.598 21.1434 0.072154 0.381382 -1.662225
2008-07-16 07:03:18 51°13.925 2°55.594 21.1427 0.072154 0.381408 -1.662225
2008-07-16 07:04:18 51°13.955 2°55.615 21.1628 0.072154 0.381402 -1.662225
2008-07-16 07:05:18 51°13.966 2°55.56 21.096 0.072154 0.381421 -1.662225
2008-07-16 07:06:18 51°14.056 2°55.467 21.1419 0.072154 0.381402 -1.627401
2008-07-16 07:07:18 51°14.19 2°55.34 21.1572 0.072154 0.381408 -1.627401
2008-07-16 07:08:18 51°14.317 2°55.15 21.1269 0.072154 0.381434 -1.627401
2008-07-16 07:09:18 51°14.441 2°54.92 21.131 0.072154 0.381472 -1.662225
2008-07-16 07:10:18 51°14.582 2°54.686 21.1418 0.072154 0.381498 -1.627401
2008-07-16 07:11:18 51°14.714 2°54.434 21.136 0.072154 0.381543 -1.662225
2008-07-16 07:12:18 51°14.838 2°54.178 21.1557 0.072154 0.381576 -1.662225
2008-07-16 07:13:18 51°14.904 2°53.868 21.1242 0.072154 0.381543 -1.627401
2008-07-16 07:14:18 51°14.943 2°53.542 21.128 0.072154 0.381537 -1.627401
2008-07-16 07:15:18 51°14.955 2°53.205 21.1049 0.072154 0.38155 -1.627401
2008-07-16 07:16:18 51°14.967 2°52.87 21.1169 0.072154 0.381537 -1.662225
2008-07-16 07:17:18 51°14.974 2°52.533 21.1326 0.072154 0.381537 -1.662225
2008-07-16 07:18:18 51°14.976 2°52.193 21.1262 0.072154 0.38155 -1.627401
2008-07-16 07:19:18 51°14.989 2°51.855 21.1441 0.072154 0.38155 -1.662225
2008-07-16 07:20:18 51°15.006 2°51.517 21.1119 0.072154 0.381556 -1.627401
2008-07-16 07:21:18 51°15.042 2°51.182 21.1385 0.072154 0.381576 -1.627401
2008-07-16 07:22:18 51°15.1 2°50.857 21.1561 0.072154 0.381569 -1.662225
2008-07-16 07:23:18 51°15.167 2°50.535 21.169 0.072154 0.381576 -1.627401
2008-07-16 07:24:18 51°15.233 2°50.213 21.1507 0.072154 0.381588 -1.662225
2008-07-16 07:25:18 51°15.3 2°49.894 21.1721 0.072154 0.381588 -1.627401
2008-07-16 07:26:18 51°15.372 2°49.576 21.1518 0.072154 0.381601 -1.662225
2008-07-16 07:27:18 51°15.44 2°49.257 21.1808 0.072154 0.381608 -1.662225
2008-07-16 07:28:18 51°15.499 2°48.936 21.1843 0.072154 0.381621 -1.627401
2008-07-16 07:29:18 51°15.558 2°48.618 21.2027 0.072154 0.381627 -1.627401
2008-07-16 07:30:18 51°15.616 2°48.299 21.1643 0.072154 0.381646 -1.592577
2008-07-16 07:31:18 51°15.688 2°47.986 21.1837 0.072154 0.381659 -1.592577
2008-07-16 07:32:18 51°15.771 2°47.677 21.2042 0.072154 0.381672 -1.592577
2008-07-16 07:33:18 51°15.849 2°47.364 21.2216 0.072154 0.381685 -1.592577
2008-07-16 07:34:18 51°15.925 2°47.047 21.2356 0.072154 0.381698 -1.627401
2008-07-16 07:35:18 51°15.996 2°46.73 21.2578 0.072154 0.381711 -1.592577
2008-07-16 07:36:18 51°16.071 2°46.418 21.2139 0.072154 0.381724 -1.662225
2008-07-16 07:37:18 51°16.149 2°46.112 21.2313 0.072154 0.381737 -1.662225
2008-07-16 07:38:18 51°16.227 2°45.809 21.2418 0.072051 0.381188 -1.662225
2008-07-16 07:39:18 51°16.304 2°45.507 21.2556 0.072051 0.381194 -1.662225
2008-07-16 07:40:18 51°16.388 2°45.212 21.2643 0.072051 0.381213 -1.662225
2008-07-16 07:41:18 51°16.478 2°44.92 21.2708 0.072051 0.381226 -1.662225
2008-07-16 07:42:18 51°16.576 2°44.636 21.2812 0.072051 0.381239 -1.662225
2008-07-16 07:43:18 51°16.687 2°44.363 21.2895 0.072051 0.381252 -1.662225
2008-07-16 07:44:18 51°16.8 2°44.091 21.2983 0.072051 0.381265 -1.662225
2008-07-16 07:45:18 51°16.919 2°43.823 21.3089 0.072051 0.381278 -1.662225
2008-07-16 07:46:18 51°17.028 2°43.543 21.3193 0.072051 0.381278 -1.627401
2008-07-16 07:47:18 51°17.142 2°43.268 21.3277 0.072051 0.381304 -1.662225
2008-07-16 07:48:18 51°17.268 2°43.006 21.3383 0.072051 0.38131 -1.662225
2008-07-16 07:49:18 51°17.394 2°42.744 21.3452 0.072051 0.381323 -1.662225
2008-07-16 07:50:18 51°17.516 2°42.469 21.3554 0.072051 0.381336 -1.662225
2008-07-16 07:51:18 51°17.632 2°42.19 21.3654 0.072051 0.381342 -1.662225
2008-07-16 07:52:18 51°17.753 2°41.917 21.3709 0.072051 0.381355 -1.662225
2008-07-16 07:53:18 51°17.9 2°41.69 21.3813 0.072051 0.381375 -1.662225
2008-07-16 07:54:18 51°18.043 2°41.459 21.3883 0.072051 0.381381 -1.662225
2008-07-16 07:55:18 51°18.177 2°41.211 21.3975 0.072051 0.381394 -1.662225
2008-07-16 07:56:18 51°18.296 2°40.941 21.4044 0.072051 0.381407 -1.662225
2008-07-16 07:57:18 51°18.424 2°40.678 21.412 0.072051 0.381426 -1.662225
2008-07-16 07:58:18 51°18.554 2°40.418 21.4193 0.072051 0.381439 -1.662225
2008-07-16 07:59:18 51°18.677 2°40.146 21.428 0.072051 0.381452 -1.662225
2008-07-16 08:00:18 51°18.803 2°39.88 21.4335 0.072051 0.381465 -1.662225
2008-07-16 08:01:18 51°18.935 2°39.625 21.4416 0.072051 0.381471 -1.662225
2008-07-16 08:02:18 51°19.067 2°39.371 21.4504 0.072051 0.381484 -1.662225
2008-07-16 08:03:18 51°19.19 2°39.105 21.4563 0.071948 0.380935 -1.662225
2008-07-16 08:04:18 51°19.312 2°38.84 21.4636 0.072051 0.38151 -1.662225
2008-07-16 08:05:19 51°19.437 2°38.571 21.4709 0.072051 0.381517 -1.662225
2008-07-16 08:06:18 51°19.559 2°38.315 21.4806 0.071948 0.380967 -1.662225
2008-07-16 08:07:19 51°19.686 2°38.051 21.4908 0.071948 0.380973 -1.662225
2008-07-16 08:08:18 51°19.808 2°37.795 21.4967 0.071948 0.38098 -1.662225
2008-07-16 08:09:18 51°19.912 2°37.532 21.5082 0.071948 0.380999 -1.662225
2008-07-16 08:10:18 51°19.983 2°37.33 21.5158 0.071948 0.380999 -1.662225
2008-07-16 08:11:18 51°20.034 2°37.132 21.5165 0.071948 0.381019 -1.627401
2008-07-16 08:12:18 51°20.068 2°36.995 21.5219 0.071948 0.381031 -1.662225
2008-07-16 08:13:18 51°20.097 2°36.912 21.53 0.071948 0.381044 -1.662225
2008-07-16 08:14:18 51°20.092 2°36.884 21.5425 0.071948 0.381051 -1.662225
2008-07-16 08:15:18 51°20.079 2°36.869 21.5508 0.071948 0.381057 -1.662225
2008-07-16 08:16:19 51°20.064 2°36.858 21.5578 0.071948 0.381064 -1.662225
2008-07-16 08:17:18 51°20.049 2°36.848 21.5646 0.071948 0.381064 -1.662225
2008-07-16 08:18:18 51°20.032 2°36.841 21.5745 0.071948 0.381077 -1.662225
2008-07-16 08:19:18 51°20.016 2°36.835 21.5756 0.071948 0.381083 -1.662225
2008-07-16 08:20:18 51°20 2°36.829 21.5913 0.071948 0.38109 -1.662225
2008-07-16 08:21:18 51°19.984 2°36.824 21.5915 0.071948 0.381096 -1.662225
2008-07-16 08:22:18 51°19.968 2°36.819 21.5983 0.071948 0.381102 -1.662225
2008-07-16 08:23:18 51°19.953 2°36.815 21.6062 0.071948 0.381109 -1.662225
2008-07-16 08:24:18 51°19.938 2°36.811 21.6115 0.071948 0.381122 -1.662225
2008-07-16 08:25:18 51°19.925 2°36.808 21.6204 0.071948 0.381128 -1.662225
2008-07-16 08:26:18 51°19.911 2°36.805 21.6273 0.071948 0.381141 -1.662225
2008-07-16 08:27:18 51°19.898 2°36.802 21.6381 0.071948 0.381154 -1.662225
2008-07-16 08:28:18 51°19.886 2°36.799 21.6426 0.071948 0.381167 -1.662225
2008-07-16 08:29:18 51°19.874 2°36.796 21.6418 0.071948 0.381173 -1.662225
2008-07-16 08:30:18 51°19.863 2°36.793 21.6483 0.071948 0.38118 -1.662225
2008-07-16 08:31:18 51°19.851 2°36.791 21.6612 0.071948 0.381193 -1.662225
2008-07-16 08:32:19 51°19.839 2°36.789 21.6696 0.071948 0.381206 -1.662225
2008-07-16 08:33:18 51°19.828 2°36.787 21.6728 0.071948 0.381225 -1.662225
2008-07-16 08:34:19 51°19.816 2°36.786 21.6779 0.071948 0.381238 -1.662225
2008-07-16 08:35:18 51°19.804 2°36.785 21.6896 0.071948 0.381251 -1.662225
2008-07-16 08:36:19 51°19.792 2°36.784 21.6923 0.071948 0.38127 -1.662225
2008-07-16 08:37:18 51°19.78 2°36.783 21.7015 0.071948 0.381283 -1.662225
2008-07-16 08:38:18 51°19.769 2°36.783 21.7084 0.071948 0.381296 -1.662225
2008-07-16 08:39:18 51°19.758 2°36.783 21.7166 0.071948 0.381315 -1.662225
2008-07-16 08:40:18 51°19.748 2°36.783 21.7293 0.072051 0.381892 -1.662225
2008-07-16 08:41:19 51°19.737 2°36.786 21.7315 0.072051 0.381904 -1.662225
2008-07-16 08:42:18 51°19.731 2°36.791 21.7382 0.072051 0.381917 -1.662225
2008-07-16 08:43:18 51°19.733 2°36.801 21.7435 0.072051 0.381937 -1.662225
2008-07-16 08:44:18 51°19.746 2°36.812 21.7535 0.071948 0.381387 -1.662225
2008-07-16 08:45:18 51°19.764 2°36.823 21.7598 0.072051 0.381963 -1.662225
2008-07-16 08:46:18 51°19.787 2°36.83 21.765 0.072051 0.381976 -1.662225
2008-07-16 08:47:18 51°19.812 2°36.833 21.7767 0.071948 0.381425 -1.662225
2008-07-16 08:48:18 51°19.838 2°36.838 21.7843 0.072051 0.382002 -1.662225
2008-07-16 08:49:18 51°19.864 2°36.848 21.7942 0.072051 0.382021 -1.662225
2008-07-16 08:50:19 51°19.89 2°36.853 21.7991 0.072051 0.382027 -1.662225
2008-07-16 08:51:18 51°19.917 2°36.861 21.811 0.072051 0.38204 -1.662225
2008-07-16 08:52:19 51°19.945 2°36.871 21.8163 0.071948 0.38149 -1.662225
2008-07-16 08:53:18 51°19.971 2°36.881 21.8228 0.072051 0.382066 -1.662225
2008-07-16 08:54:19 51°19.987 2°36.891 21.828 0.072051 0.382079 -1.662225
2008-07-16 08:55:19 51°19.995 2°36.899 21.8375 0.072051 0.382092 -1.662225
2008-07-16 08:56:18 51°19.998 2°36.908 21.8391 0.072051 0.382112 -1.662225
2008-07-16 08:57:19 51°19.997 2°36.918 21.849 0.072051 0.382125 -1.662225
2008-07-16 08:58:18 51°19.995 2°36.929 21.859 0.072051 0.382144 -1.662225
2008-07-16 08:59:19 51°19.99 2°36.939 21.8639 0.072051 0.382157 -1.662225
2008-07-16 09:00:18 51°19.985 2°36.951 21.8757 0.072051 0.38217 -1.662225
2008-07-16 09:01:18 51°19.978 2°36.962 21.8825 0.072051 0.382183 -1.662225
2008-07-16 09:02:18 51°19.971 2°36.974 21.888 0.072051 0.382196 -1.662225
2008-07-16 09:03:18 51°19.963 2°36.987 21.8941 0.071948 0.381652 -1.662225
2008-07-16 09:04:18 51°19.956 2°37.001 21.9037 0.071948 0.381665 -1.662225
2008-07-16 09:05:18 51°19.951 2°37.015 21.9104 0.071948 0.381671 -1.662225
2008-07-16 09:06:19 51°19.95 2°37.03 21.9117 0.071948 0.381684 -1.662225
2008-07-16 09:07:18 51°19.951 2°37.043 21.9159 0.071948 0.381697 -1.662225
2008-07-16 09:08:19 51°19.954 2°37.055 21.9315 0.071948 0.381717 -1.662225
2008-07-16 09:09:18 51°19.959 2°37.064 21.9318 0.071948 0.381723 -1.662225
2008-07-16 09:10:19 51°19.977 2°37.055 21.9413 0.071948 0.381743 -1.662225
2008-07-16 09:11:18 51°19.998 2°37.046 21.9416 0.072051 0.382326 -1.662225
2008-07-16 09:12:19 51°19.995 2°37.056 21.956 0.071948 0.381775 -1.662225
2008-07-16 09:13:19 51°19.988 2°37.071 21.9622 0.071948 0.381788 -1.662225
2008-07-16 09:14:18 51°19.981 2°37.088 21.9755 0.071948 0.38182 -1.662225
2008-07-16 09:15:19 51°19.973 2°37.106 21.9794 0.071948 0.381827 -1.662225
2008-07-16 09:16:18 51°19.968 2°37.128 21.9819 0.071948 0.381853 -1.662225
2008-07-16 09:17:19 51°19.971 2°37.154 21.9887 0.071948 0.381866 -1.662225
2008-07-16 09:18:18 51°19.982 2°37.172 21.9948 0.071948 0.381879 -1.662225
2008-07-16 09:19:18 51°20.003 2°37.17 22.006 0.071948 0.381885 -1.662225
2008-07-16 09:20:18 51°20.019 2°37.119 22 0.071948 0.381898 -1.662225
2008-07-16 09:21:18 51°20.035 2°37.057 22.0129 0.071948 0.381918 -1.662225
2008-07-16 09:22:19 51°20.057 2°36.999 22.017 0.071948 0.381943 -1.662225
2008-07-16 09:23:18 51°20.076 2°36.945 22.024 0.071948 0.381956 -1.662225
2008-07-16 09:24:19 51°20.094 2°36.909 22.0253 0.071948 0.381969 -1.662225
2008-07-16 09:25:18 51°20.106 2°36.897 22.0364 0.071948 0.381982 -1.662225
2008-07-16 09:26:19 51°20.113 2°36.904 22.0334 0.071948 0.381995 -1.662225
2008-07-16 09:27:18 51°20.108 2°36.919 22.0478 0.071948 0.382015 -1.662225
2008-07-16 09:28:19 51°20.096 2°36.929 22.0521 0.071948 0.382034 -1.662225
2008-07-16 09:29:19 51°20.084 2°36.934 22.0595 0.071948 0.382047 -1.662225
2008-07-16 09:30:18 51°20.081 2°36.954 22.0634 0.071948 0.38206 -1.662225
2008-07-16 09:31:19 51°20.122 2°36.97 22.0801 0.071948 0.382099 -1.662225
2008-07-16 09:32:18 51°20.127 2°36.888 22.0898 0.071948 0.382093 -1.662225
2008-07-16 09:33:19 51°20.082 2°36.87 22.0757 0.071948 0.382099 -1.662225
2008-07-16 09:34:18 51°20.081 2°36.884 22.097 0.071948 0.382125 -1.662225
2008-07-16 09:35:18 51°20.082 2°36.899 22.1021 0.071948 0.382145 -1.662225
2008-07-16 09:36:18 51°20.081 2°36.917 22.0998 0.071948 0.382158 -1.662225
2008-07-16 09:37:19 51°20.078 2°36.937 22.1133 0.071948 0.382184 -1.662225
2008-07-16 09:38:19 51°20.063 2°36.955 22.1048 0.071948 0.382197 -1.662225
2008-07-16 09:39:18 51°20.033 2°36.902 22.1113 0.071948 0.382236 -1.662225
2008-07-16 09:40:19 51°20.073 2°36.846 22.1134 0.071948 0.382242 -1.697049
2008-07-16 09:41:18 51°20.1 2°36.87 22.1407 0.071948 0.382242 -1.662225
2008-07-16 09:42:19 51°20.101 2°36.895 22.1472 0.071948 0.382255 -1.662225
2008-07-16 09:43:19 51°20.098 2°36.912 22.1377 0.071948 0.382268 -1.662225
2008-07-16 09:44:19 51°20.095 2°36.894 22.1443 0.071948 0.382275 -1.662225
2008-07-16 09:45:19 51°20.094 2°36.905 22.1522 0.071948 0.382294 -1.662225
2008-07-16 09:46:18 51°20.094 2°36.935 22.1589 0.071948 0.382301 -1.662225
2008-07-16 09:47:19 51°20.087 2°36.948 22.1616 0.071948 0.382314 -1.662225
2008-07-16 09:48:18 51°20.079 2°36.951 22.1594 0.071948 0.382327 -1.662225
2008-07-16 09:49:19 51°20.073 2°36.96 22.1794 0.071948 0.38234 -1.662225
2008-07-16 09:50:18 51°20.084 2°37.007 22.1859 0.072051 0.38293 -1.662225
2008-07-16 09:51:19 51°20.124 2°37.033 22.1887 0.071948 0.382379 -1.662225
2008-07-16 09:52:18 51°20.147 2°36.991 22.1851 0.071948 0.382385 -1.662225
2008-07-16 09:53:19 51°20.126 2°36.93 22.1903 0.071948 0.382379 -1.662225
2008-07-16 09:54:19 51°20.103 2°36.883 22.2031 0.071948 0.382398 -1.662225
2008-07-16 09:55:19 51°20.09 2°36.876 22.2051 0.071948 0.382418 -1.662225
2008-07-16 09:56:19 51°20.083 2°36.891 22.2155 0.071948 0.382424 -1.662225
2008-07-16 09:57:19 51°20.077 2°36.909 22.2189 0.071948 0.382424 -1.662225
2008-07-16 09:58:19 51°20.071 2°36.929 22.2265 0.071948 0.382437 -1.662225
2008-07-16 09:59:18 51°20.065 2°36.948 22.2252 0.071948 0.382444 -1.662225
2008-07-16 10:00:19 51°20.049 2°36.945 22.2291 0.071948 0.382463 -1.662225
2008-07-16 10:01:19 51°20.044 2°36.913 22.2323 0.071948 0.382476 -1.662225
2008-07-16 10:02:18 51°20.067 2°36.884 22.2443 0.071845 0.381918 -1.662225
2008-07-16 10:03:19 51°20.092 2°36.883 22.2438 0.071845 0.381924 -1.662225
2008-07-16 10:04:18 51°20.093 2°36.904 22.2562 0.071845 0.381937 -1.662225
2008-07-16 10:05:19 51°20.094 2°36.927 22.2519 0.071845 0.381937 -1.662225
2008-07-16 10:06:18 51°20.102 2°36.954 22.2586 0.071845 0.38195 -1.662225
2008-07-16 10:07:19 51°20.119 2°36.982 22.2653 0.071845 0.381957 -1.662225
2008-07-16 10:08:18 51°20.138 2°37 22.2727 0.071845 0.38197 -1.662225
2008-07-16 10:09:19 51°20.158 2°36.998 22.2843 0.071845 0.381976 -1.662225
2008-07-16 10:10:19 51°20.148 2°36.951 22.2754 0.071845 0.382002 -1.662225
2008-07-16 10:11:19 51°20.105 2°36.904 22.2877 0.071845 0.381989 -1.662225
2008-07-16 10:12:19 51°20.087 2°36.896 22.2917 0.071845 0.382009 -1.662225
2008-07-16 10:13:19 51°20.081 2°36.9 22.2939 0.071845 0.382022 -1.662225
2008-07-16 10:14:19 51°20.077 2°36.908 22.2996 0.072257 0.384295 -1.662225
2008-07-16 10:15:18 51°20.074 2°36.92 22.2951 0.071845 0.382048 -1.662225
2008-07-16 10:16:19 51°20.07 2°36.931 22.3057 0.071845 0.382048 -1.662225
2008-07-16 10:17:19 51°20.068 2°36.924 22.3094 0.071845 0.382061 -1.662225
2008-07-16 10:18:18 51°20.077 2°36.906 22.3173 0.071845 0.382074 -1.662225
2008-07-16 10:19:19 51°20.092 2°36.894 22.321 0.071845 0.382074 -1.662225
2008-07-16 10:20:18 51°20.106 2°36.9 22.3259 0.071845 0.38208 -1.662225
2008-07-16 10:21:19 51°20.122 2°36.91 22.3257 0.071845 0.382093 -1.662225
2008-07-16 10:22:18 51°20.136 2°36.905 22.3273 0.071845 0.382113 -1.662225
2008-07-16 10:23:19 51°20.136 2°36.894 22.3313 0.071845 0.382113 -1.662225
2008-07-16 10:24:18 51°20.122 2°36.891 22.3412 0.071845 0.382107 -1.662225
2008-07-16 10:25:19 51°20.098 2°36.891 22.3453 0.071845 0.382113 -1.662225
2008-07-16 10:26:19 51°20.085 2°36.903 22.3511 0.071845 0.382126 -1.697049
2008-07-16 10:27:19 51°20.077 2°36.918 22.3574 0.071845 0.382139 -1.662225
2008-07-16 10:28:19 51°20.071 2°36.935 22.3605 0.071845 0.382159 -1.662225
2008-07-16 10:29:19 51°20.053 2°36.947 22.3617 0.071845 0.382172 -1.662225
2008-07-16 10:30:18 51°20.008 2°37.002 22.3654 0.071845 0.382165 -1.662225
2008-07-16 10:31:18 51°19.925 2°37.156 22.3617 0.071742 0.381606 -1.662225
2008-07-16 10:32:18 51°19.803 2°37.403 22.3538 0.071742 0.381613 -1.662225
2008-07-16 10:33:19 51°19.667 2°37.677 22.3617 0.071742 0.381613 -1.662225
2008-07-16 10:34:18 51°19.536 2°37.944 22.3721 0.071742 0.381632 -1.662225
2008-07-16 10:35:19 51°19.408 2°38.227 22.3732 0.071742 0.381632 -1.662225
2008-07-16 10:36:18 51°19.282 2°38.496 22.3716 0.071742 0.381645 -1.662225
2008-07-16 10:37:19 51°19.146 2°38.769 22.3881 0.071742 0.381652 -1.662225
2008-07-16 10:38:18 51°19.022 2°39.039 22.3896 0.071742 0.381658 -1.662225
2008-07-16 10:39:19 51°18.9 2°39.326 22.3919 0.071742 0.381658 -1.662225
2008-07-16 10:40:18 51°18.78 2°39.599 22.3996 0.071742 0.381658 -1.662225
2008-07-16 10:41:19 51°18.661 2°39.888 22.3903 0.071742 0.381678 -1.662225
2008-07-16 10:42:19 51°18.569 2°40.2 22.4102 0.071742 0.381678 -1.662225
2008-07-16 10:43:19 51°18.477 2°40.517 22.4044 0.071742 0.381684 -1.662225
2008-07-16 10:44:19 51°18.384 2°40.836 22.4046 0.071742 0.381684 -1.662225
2008-07-16 10:45:19 51°18.292 2°41.156 22.4221 0.071742 0.381704 -1.662225
2008-07-16 10:46:19 51°18.197 2°41.473 22.4142 0.071742 0.38171 -1.697049
2008-07-16 10:47:18 51°18.09 2°41.77 22.4211 0.071742 0.38171 -1.662225
2008-07-16 10:48:19 51°17.969 2°42.063 22.4256 0.071742 0.381717 -1.697049
2008-07-16 10:49:19 51°17.85 2°42.348 22.4335 0.071742 0.381723 -1.662225
2008-07-16 10:50:19 51°17.731 2°42.633 22.427 0.071742 0.38173 -1.662225
2008-07-16 10:51:19 51°17.614 2°42.92 22.4277 0.071742 0.381723 -1.662225
2008-07-16 10:52:18 51°17.497 2°43.202 22.4343 0.071845 0.382295 -1.662225
2008-07-16 10:53:19 51°17.357 2°43.472 22.4443 0.071845 0.382308 -1.662225
2008-07-16 10:54:18 51°17.222 2°43.731 22.4478 0.071845 0.382308 -1.662225
2008-07-16 10:55:19 51°17.08 2°43.993 22.4584 0.071845 0.382308 -1.662225
2008-07-16 10:56:18 51°16.943 2°44.242 22.4432 0.071845 0.382315 -1.662225
2008-07-16 10:57:19 51°16.803 2°44.499 22.4515 0.071845 0.382315 -1.662225
2008-07-16 10:58:19 51°16.665 2°44.751 22.4719 0.071845 0.382321 -1.662225
2008-07-16 10:59:19 51°16.536 2°45.015 22.4587 0.071845 0.382328 -1.662225
2008-07-16 11:00:19 51°16.407 2°45.279 22.4621 0.071845 0.382328 -1.697049
2008-07-16 11:01:19 51°16.291 2°45.561 22.4692 0.071845 0.382321 -1.662225
2008-07-16 11:02:19 51°16.192 2°45.863 22.4757 0.071845 0.382328 -1.697049
2008-07-16 11:03:19 51°16.106 2°46.177 22.4919 0.071845 0.382334 -1.662225
2008-07-16 11:04:19 51°16.014 2°46.493 22.498 0.071845 0.382328 -1.662225
2008-07-16 11:05:18 51°15.927 2°46.809 22.4956 0.071845 0.382334 -1.662225
2008-07-16 11:06:19 51°15.838 2°47.137 22.5082 0.071845 0.382347 -1.662225
2008-07-16 11:07:19 51°15.773 2°47.476 22.51 0.071845 0.382328 -1.662225
2008-07-16 11:08:19 51°15.726 2°47.823 22.5128 0.071845 0.382341 -1.697049
2008-07-16 11:09:19 51°15.684 2°48.169 22.5221 0.071845 0.382341 -1.662225
2008-07-16 11:10:19 51°15.639 2°48.512 22.5238 0.071948 0.382913 -1.697049
2008-07-16 11:11:19 51°15.585 2°48.85 22.5179 0.071948 0.382913 -1.662225
2008-07-16 11:12:19 51°15.536 2°49.19 22.5423 0.071948 0.382919 -1.662225
2008-07-16 11:13:19 51°15.503 2°49.539 22.5456 0.071948 0.382919 -1.697049
2008-07-16 11:14:19 51°15.453 2°49.881 22.5381 0.071948 0.382932 -1.697049
2008-07-16 11:15:19 51°15.386 2°50.214 22.5505 0.071948 0.382939 -1.697049
2008-07-16 11:16:19 51°15.323 2°50.547 22.5424 0.071948 0.382932 -1.662225
2008-07-16 11:17:19 51°15.242 2°50.869 22.5625 0.071948 0.382946 -1.662225
2008-07-16 11:18:19 51°15.157 2°51.188 22.5743 0.071845 0.382393 -1.662225
2008-07-16 11:19:19 51°15.069 2°51.505 22.5834 0.071948 0.382959 -1.697049
2008-07-16 11:20:19 51°14.995 2°51.83 22.5762 0.071948 0.382965 -1.662225
2008-07-16 11:21:19 51°14.935 2°52.162 22.5867 0.071948 0.382965 -1.662225
2008-07-16 11:22:19 51°14.867 2°52.489 22.5888 0.071948 0.382972 -1.697049
2008-07-16 11:23:19 51°14.802 2°52.815 22.5899 0.071948 0.382978 -1.697049
2008-07-16 11:24:19 51°14.74 2°53.142 22.6192 0.071948 0.382985 -1.662225
2008-07-16 11:25:19 51°14.681 2°53.469 22.6069 0.071948 0.382991 -1.662225
2008-07-16 11:26:19 51°14.64 2°53.808 22.6165 0.071948 0.382998 -1.662225
2008-07-16 11:27:19 51°14.596 2°54.152 22.6186 0.071948 0.382998 -1.697049
2008-07-16 11:28:19 51°14.536 2°54.485 22.613 0.071948 0.383004 -1.662225
2008-07-16 11:29:19 51°14.459 2°54.806 22.6196 0.071948 0.382998 -1.662225
2008-07-16 11:30:19 51°14.347 2°55.089 22.643 0.071948 0.383004 -1.662225
2008-07-16 11:31:19 51°14.232 2°55.299 22.6408 0.071948 0.383004 -1.662225
2008-07-16 11:32:19 51°14.125 2°55.423 22.6543 0.071948 0.383017 -1.662225
2008-07-16 11:33:19 51°14.048 2°55.525 22.6514 0.071948 0.383017 -1.697049
2008-07-16 11:34:19 51°13.991 2°55.605 22.6509 0.072051 0.383583 -1.662225
2008-07-16 11:35:19 51°13.956 2°55.619 22.6497 0.072051 0.383583 -1.697049
2008-07-16 11:36:19 51°13.956 2°55.627 22.6658 0.072051 0.383583 -1.662225
2008-07-16 11:37:18 51°13.962 2°55.639 22.6745 0.072051 0.383576 -1.662225
2008-07-16 11:38:19 51°13.959 2°55.649 22.6818 0.072051 0.383563 -1.662225
2008-07-16 11:39:19 51°13.949 2°55.653 22.6692 0.072051 0.383557 -1.662225
2008-07-16 11:40:19 51°13.94 2°55.656 22.6605 0.072051 0.383557 -1.662225
2008-07-16 11:41:19 51°13.93 2°55.661 22.6801 0.072051 0.38355 -1.697049